GW4136 Weather Reports


time (UTC)temp
F
wind
direction
speed
knots
gust
knots
rain 1hr
in
rain 24hr
in
rain mn
in
humidity
%
barometer
mb
20260502210604 53 210 0.0 0.9 0.00 0.00 0.00 95 1012.6
20260502210104 53 225 0.9 5.2 0.00 0.00 0.00 95 1012.4
20260502205604 53 283 1.7 6.1 0.00 0.00 0.00 95 1012.5
20260502205104 53 274 1.7 5.2 0.00 0.00 0.00 95 1012.4
20260502204605 53 277 0.9 2.6 0.00 0.00 0.00 95 1012.5
20260502204104 53 86 0.0 0.0 0.00 0.00 0.00 95 1012.7
20260502203605 53 91 0.0 0.0 0.00 0.00 0.00 95 1012.7
20260502203105 53 234 0.0 1.7 0.00 0.00 0.00 95 1012.6
20260502202104 53 106 0.0 0.9 0.00 0.00 0.00 95 1012.9
20260502201604 53 142 0.0 0.0 0.00 0.00 0.00 95 1013.0
20260502201104 53 245 0.0 0.0 0.00 0.00 0.00 94 1012.8
20260502200604 53 245 0.0 0.0 0.00 0.00 0.00 94 1012.9
20260502200104 53 243 0.0 0.0 0.00 0.00 0.00 94 1012.8
20260502195604 53 238 0.0 0.9 0.00 0.00 0.00 94 1012.9
20260502195104 53 237 0.0 0.9 0.00 0.00 0.00 94 1013.0
20260502194603 53 232 0.0 0.9 0.00 0.00 0.00 94 1012.9
20260502194104 53 225 0.0 1.7 0.00 0.00 0.00 94 1013.0
20260502193604 53 236 0.0 0.0 0.00 0.00 0.00 94 1013.1
20260502193104 53 217 0.0 0.0 0.00 0.00 0.00 94 1013.1
20260502192604 53 214 0.0 0.0 0.00 0.00 0.00 93 1013.1
20260502191604 53 229 0.0 0.9 0.00 0.00 0.00 93 1013.1
20260502191104 53 232 0.0 0.9 0.00 0.00 0.00 93 1013.2
20260502190604 53 200 0.0 0.0 0.00 0.00 0.00 93 1013.2
20260502185604 53 188 0.0 0.9 0.00 0.00 0.00 92 1013.5
20260502185104 53 188 0.0 0.0 0.00 0.00 0.00 92 1013.4
20260502184605 53 268 0.0 0.9 0.00 0.00 0.00 92 1013.4
20260502184104 54 281 0.0 1.7 0.00 0.00 0.00 91 1013.5
20260502183104 54 191 0.0 0.0 0.00 0.00 0.00 91 1013.8
20260502182604 54 189 0.0 0.0 0.00 0.00 0.00 90 1013.9
20260502182104 54 158 0.0 0.0 0.00 0.00 0.00 90 1014.1
20260502180604 55 158 0.0 0.0 0.00 0.00 0.00 89 1014.2
20260502170104 62 168 0.0 0.0 0.00 0.00 0.00 68 1014.0
20260502163604 62 247 0.0 0.0 0.00 0.00 0.00 66 1014.2
20260502163104 62 247 0.0 0.0 0.00 0.00 0.00 67 1014.2
20260502162604 62 247 0.0 0.0 0.00 0.00 0.00 67 1014.2
20260502162104 62 247 0.0 0.0 0.00 0.00 0.00 66 1014.3
20260502161605 62 247 0.0 0.0 0.00 0.00 0.00 67 1014.3
20260502161104 62 247 0.0 0.0 0.00 0.00 0.00 66 1014.4
20260502160105 63 247 0.0 0.0 0.00 0.00 0.00 68 1014.5
20260502151104 62 89 0.0 1.7 0.00 0.00 0.00 66 1015.2
20260502150604 62 251 0.0 0.9 0.00 0.00 0.00 66 1015.3
20260502150105 62 202 0.0 0.9 0.00 0.00 0.00 68 1015.3
20260502140105 64 101 0.0 0.9 0.00 0.00 0.00 65 1016.5
20260502130604 61 86 0.9 2.6 0.00 0.00 0.00 67 1017.0
20260502130105 62 96 0.9 2.6 0.00 0.00 0.00 67 1017.0
20260502123604 62 91 0.9 1.7 0.00 0.00 0.00 64 1017.1
20260502123105 62 354 0.0 1.7 0.00 0.00 0.00 64 1017.1
20260502122105 62 88 0.9 4.3 0.00 0.00 0.00 65 1017.2
20260502121605 62 120 0.9 2.6 0.00 0.00 0.00 67 1017.3
20260502121105 61 150 0.0 2.6 0.00 0.00 0.00 69 1017.3
20260502120605 61 100 0.9 2.6 0.00 0.00 0.00 68 1017.4
20260502120106 61 113 0.9 4.3 0.00 0.00 0.00 68 1017.5
20260502115605 61 85 1.7 4.3 0.00 0.00 0.00 67 1017.6
20260502115105 61 98 0.0 2.6 0.00 0.00 0.00 68 1017.6
20260502114605 61 105 1.7 4.3 0.00 0.00 0.00 69 1017.7
20260502114106 61 98 0.0 4.3 0.00 0.00 0.00 68 1017.6
20260502113605 61 86 0.9 2.6 0.00 0.00 0.00 69 1017.6
20260502113105 61 76 0.9 6.1 0.00 0.00 0.00 68 1017.6
20260502112605 61 61 0.9 2.6 0.00 0.00 0.00 68 1017.8
20260502112105 61 80 1.7 6.1 0.00 0.00 0.00 67 1017.8
20260502111608 62 56 0.0 5.2 0.00 0.00 0.00 68 1017.8
20260502111105 62 110 0.0 2.6 0.00 0.00 0.00 68 1018.0
20260502110105 62 87 0.9 4.3 0.00 0.00 0.00 68 1018.1
20260502105605 62 109 0.0 1.7 0.00 0.00 0.00 69 1018.2
20260502105105 62 103 0.0 1.7 0.00 0.00 0.00 68 1018.2
20260502104605 61 223 0.0 0.9 0.00 0.00 0.00 71 1018.3
20260502104109 60 99 0.9 2.6 0.00 0.00 0.00 72 1018.4
20260502103605 60 130 0.9 4.3 0.00 0.00 0.00 71 1018.5
20260502103105 60 95 1.7 5.2 0.00 0.00 0.00 71 1018.5
20260502102605 60 86 0.9 2.6 0.00 0.00 0.00 72 1018.4
20260502102105 60 81 0.9 2.6 0.00 0.00 0.00 73 1018.4
20260502101105 60 117 0.9 1.7 0.00 0.00 0.00 73 1018.4
20260502100605 60 84 0.9 2.6 0.00 0.00 0.00 73 1018.4
20260502100105 59 157 0.0 1.7 0.00 0.00 0.00 73 1018.4
20260502091105 58 162 0.0 1.7 0.00 0.00 0.00 78 1019.0
20260502090606 58 186 0.0 1.7 0.00 0.00 0.00 78 1019.1
20260502080106 54 206 0.0 0.9 0.00 0.00 0.00 84 1019.3
20260502071105 49 131 0.0 0.0 0.00 0.00 0.00 95 1019.3
20260502070105 48 165 0.0 0.0 0.00 0.00 0.00 95 1019.3
20260502065605 48 165 0.0 0.0 0.00 0.00 0.00 95 1019.3
20260502065105 48 165 0.0 0.0 0.00 0.00 0.00 95 1019.4
20260502064605 48 165 0.0 0.0 0.00 0.00 0.00 95 1019.3
20260502064105 48 165 0.0 0.0 0.00 0.00 0.00 95 1019.3
20260502063605 48 163 0.0 0.0 0.00 0.00 0.00 95 1019.3
20260502063105 48 182 0.0 0.0 0.00 0.00 0.00 95 1019.3
20260502062605 47 182 0.0 0.0 0.00 0.00 0.00 96 1019.4
20260502062105 47 181 0.0 0.0 0.00 0.00 0.00 96 1019.4
20260502061605 47 181 0.0 0.0 0.00 0.00 0.00 96 1019.3
20260502061103 47 181 0.0 0.0 0.00 0.00 0.00 95 1019.3
20260502060604 47 181 0.0 0.0 0.00 0.00 0.00 95 1019.3
20260502060106 47 181 0.0 0.0 0.00 0.00 0.00 95 1019.2
20260502055605 47 181 0.0 0.0 0.00 0.00 0.00 95 1019.1
20260502055105 47 141 0.0 0.0 0.00 0.00 0.00 95 1019.2
20260502054605 47 139 0.0 0.9 0.00 0.00 0.00 95 1019.3
20260502054106 47 126 0.0 0.0 0.00 0.00 0.00 95 1019.2
20260502053606 47 126 0.0 0.0 0.00 0.00 0.00 95 1019.2
20260502053106 47 126 0.0 0.0 0.00 0.00 0.00 95 1019.2
20260502052606 47 126 0.0 0.0 0.00 0.00 0.00 95 1019.2
20260502052104 47 126 0.0 0.0 0.00 0.00 0.00 95 1019.2
20260502051606 47 126 0.0 0.0 0.00 0.00 0.00 95 1019.2
20260502050606 47 126 0.0 0.0 0.00 0.00 0.00 95 1019.2
20260502050106 47 126 0.0 0.0 0.00 0.00 0.00 95 1019.2
20260502045605 47 131 0.0 0.9 0.00 0.00 0.00 95 1019.2
20260502044605 47 98 0.0 0.9 0.00 0.00 0.00 95 1019.2
20260502043605 46 160 0.0 0.0 0.00 0.00 0.00 95 1019.2
20260502042604 46 160 0.0 0.0 0.00 0.00 0.00 94 1019.2
20260502041105 47 160 0.0 0.0 0.00 0.00 0.00 95 1019.2
20260502040606 47 160 0.0 0.0 0.00 0.00 0.00 95 1019.2
20260502040106 47 160 0.0 0.0 0.00 0.00 0.00 95 1019.3
20260502035605 47 160 0.0 0.0 0.00 0.00 0.00 95 1019.3
20260502035105 47 160 0.0 0.0 0.00 0.00 0.00 94 1019.3
20260502034106 47 159 0.0 0.0 0.00 0.00 0.00 94 1019.4
20260502033605 47 159 0.0 0.0 0.00 0.00 0.00 94 1019.4
20260502033105 47 159 0.0 0.0 0.00 0.00 0.00 94 1019.4
20260502032606 47 159 0.0 0.0 0.00 0.00 0.00 94 1019.4
20260502032106 47 200 0.0 0.0 0.00 0.00 0.00 94 1019.5
20260502031606 47 201 0.0 0.0 0.00 0.00 0.00 93 1019.5
20260502030605 48 202 0.0 0.0 0.00 0.00 0.00 94 1019.5
20260502030106 48 202 0.0 0.0 0.00 0.00 0.00 94 1019.5
20260502025606 48 202 0.0 0.0 0.00 0.00 0.00 94 1019.5
20260502025106 47 202 0.0 0.0 0.00 0.00 0.00 93 1019.5
20260502024606 48 202 0.0 0.0 0.00 0.00 0.00 93 1019.5
20260502024106 48 202 0.0 0.0 0.00 0.00 0.00 93 1019.5
20260502023105 49 202 0.0 0.0 0.00 0.00 0.00 93 1019.6
20260502022606 49 202 0.0 0.0 0.00 0.00 0.00 93 1019.6
20260502022106 49 202 0.0 0.0 0.00 0.00 0.00 93 1019.8
20260502021606 49 202 0.0 0.0 0.00 0.00 0.00 93 1019.7
20260502021106 49 202 0.0 0.0 0.00 0.00 0.00 93 1019.8
20260502020106 49 202 0.0 0.0 0.00 0.00 0.00 93 1019.9
20260502015606 49 202 0.0 0.0 0.00 0.00 0.00 92 1019.9
20260502015110 50 202 0.0 0.0 0.00 0.00 0.00 93 1019.9
20260502014606 50 202 0.0 0.0 0.00 0.00 0.00 93 1019.9
20260502014106 50 202 0.0 0.0 0.00 0.00 0.00 92 1020.0
20260502013606 50 202 0.0 0.0 0.00 0.00 0.00 92 1020.1
20260502013106 50 202 0.0 0.0 0.00 0.00 0.00 92 1020.2
20260502012106 50 202 0.0 0.0 0.00 0.00 0.00 92 1020.2
20260502011606 50 202 0.0 0.0 0.00 0.00 0.00 92 1020.2
20260502010606 51 202 0.0 0.0 0.00 0.00 0.00 92 1020.3
20260502010106 51 202 0.0 0.0 0.00 0.00 0.00 92 1020.3
20260502005606 51 202 0.0 0.0 0.00 0.00 0.00 91 1020.3
20260502005106 51 203 0.0 0.0 0.00 0.00 0.00 91 1020.4
20260502004605 51 202 0.0 0.0 0.00 0.00 0.00 91 1020.5
20260502004106 51 202 0.0 0.0 0.00 0.00 0.00 91 1020.5
20260502003606 51 202 0.0 0.0 0.00 0.00 0.00 90 1020.5
20260502003106 51 202 0.0 0.0 0.00 0.00 0.00 90 1020.6
20260502001606 52 202 0.0 0.0 0.00 0.00 0.00 90 1020.6
20260502001106 52 202 0.0 0.0 0.00 0.00 0.00 90 1020.6
20260502000605 52 202 0.0 0.0 0.00 0.00 0.00 90 1020.7
20260502000106 52 202 0.0 0.9 0.00 0.00 0.00 91 1020.7
20260501235606 52 176 0.0 0.9 0.00 0.00 0.00 91 1020.7
20260501235106 52 160 0.0 0.0 0.00 0.00 0.00 91 1020.8
20260501234606 52 160 0.0 0.0 0.00 0.00 0.00 91 1020.8
20260501234106 52 160 0.0 0.0 0.00 0.00 0.00 91 1020.8
20260501233605 52 243 0.0 0.0 0.00 0.00 0.00 91 1020.8
20260501233106 52 243 0.0 0.0 0.00 0.00 0.00 90 1020.9
20260501232606 52 243 0.0 0.0 0.00 0.00 0.00 89 1020.9
20260501232106 52 243 0.0 0.0 0.00 0.00 0.00 89 1020.9
20260501231605 53 243 0.0 0.0 0.00 0.00 0.00 89 1020.9
20260501231106 53 243 0.0 0.0 0.00 0.00 0.00 89 1020.9
20260501230605 53 243 0.0 0.0 0.00 0.00 0.00 89 1020.9
20260501230106 53 243 0.0 0.0 0.00 0.00 0.00 88 1020.9
20260501224605 54 243 0.0 0.0 0.00 0.00 0.00 88 1020.9
20260501224105 54 243 0.0 0.9 0.00 0.00 0.00 88 1020.9
20260501223605 55 203 0.0 0.9 0.00 0.00 0.00 88 1020.9
20260501223105 55 102 0.0 1.7 0.00 0.00 0.00 88 1020.9
20260501222604 55 198 0.0 2.6 0.00 0.00 0.00 88 1020.9
20260501222105 55 163 0.0 0.9 0.00 0.00 0.00 89 1020.9
20260501221605 56 169 0.0 0.9 0.00 0.00 0.00 89 1020.9
20260501220605 56 173 0.0 0.9 0.00 0.00 0.00 89 1020.9
20260501215604 56 176 0.0 0.0 0.00 0.00 0.00 89 1020.8
20260501215105 56 155 0.0 0.0 0.00 0.00 0.00 89 1020.8
20260501214605 56 147 0.0 0.0 0.00 0.00 0.00 89 1020.7
20260501214104 56 144 0.0 1.7 0.00 0.00 0.00 89 1020.7
20260501213605 57 204 0.9 2.6 0.00 0.00 0.00 89 1020.7
20260501213105 57 188 0.0 0.0 0.00 0.00 0.00 89 1020.7
20260501212605 57 193 0.0 0.9 0.00 0.00 0.00 89 1020.7
20260501212105 57 188 0.0 0.0 0.00 0.00 0.00 89 1020.8
20260501211605 57 173 0.0 0.0 0.00 0.00 0.00 89 1020.7
20260501211104 57 182 0.0 0.0 0.00 0.00 0.00 89 1020.7